AFV462 YSSY-FQMA

Flight info

Callsign AFV462
Flight time N/A
Altitude 32000
Route WOL J42 AY T8 TEKUP DCT 40S123E 41S117E 43S110E 44S103E 44S096E 44S089E 43S081E DCT RERAB UT585 BIGSA DCT 37S050E 34S045E 31S039E DCT EGSOX UQ21 ALENI DCT EPRET EPRET1A
Aircraft B77W/H-SDE1E2E3FGHIJ2J3J4J5M1RWXY/LB1D1

Departure

Time N/A
Airport Sydney Kingsford Smith International Airport (YSSY)

Arrival

Time 2026-04-25 14:17
Airport Maputo Airport (FQMA)
Time Latitude Longitude Altitude Speed Heading
2026-04-25 09:38 -42.28651 68.04206 38217 ft 445 kts 278°
2026-04-25 09:39 -42.27542 67.95967 38214 ft 446 kts 278°
2026-04-25 09:39 -42.26426 67.87728 38224 ft 446 kts 278°
2026-04-25 09:40 -42.24741 67.75373 38226 ft 446 kts 278°
2026-04-25 09:40 -42.23612 67.67148 38224 ft 445 kts 278°
2026-04-25 09:41 -42.22478 67.58934 38225 ft 445 kts 278°
2026-04-25 09:41 -42.21340 67.50731 38212 ft 445 kts 278°
2026-04-25 09:42 -42.20196 67.42536 38228 ft 444 kts 278°
2026-04-25 09:42 -42.19047 67.34353 38235 ft 445 kts 278°
2026-04-25 09:43 -42.17891 67.26159 38238 ft 445 kts 278°
2026-04-25 09:43 -42.16728 67.17955 38228 ft 445 kts 279°
2026-04-25 09:44 -42.15566 67.09808 38243 ft 446 kts 279°
2026-04-25 09:44 -42.14381 67.01546 38245 ft 447 kts 279°
2026-04-25 09:45 -42.13204 66.93382 38250 ft 447 kts 279°
2026-04-25 09:45 -42.12012 66.85156 38237 ft 447 kts 279°
2026-04-25 09:46 -42.10813 66.76926 38246 ft 448 kts 279°
2026-04-25 09:46 -42.09607 66.68692 38255 ft 448 kts 279°
2026-04-25 09:47 -42.08395 66.60461 38254 ft 449 kts 279°
2026-04-25 09:47 -42.07175 66.52222 38249 ft 449 kts 279°
2026-04-25 09:48 -42.05951 66.43988 38249 ft 449 kts 279°
2026-04-25 09:48 -42.04718 66.35749 38268 ft 449 kts 279°
2026-04-25 09:49 -42.03479 66.27507 38274 ft 449 kts 279°
2026-04-25 09:49 -42.02235 66.19270 38269 ft 449 kts 279°
2026-04-25 09:50 -42.00983 66.11029 38268 ft 450 kts 279°
2026-04-25 09:50 -41.99736 66.02856 38272 ft 450 kts 279°
2026-04-25 09:51 -41.98471 65.94616 38275 ft 450 kts 279°
2026-04-25 09:51 -41.97203 65.86389 38274 ft 450 kts 279°
2026-04-25 09:52 -41.95928 65.78159 38273 ft 450 kts 280°
2026-04-25 09:52 -41.94645 65.69921 38278 ft 450 kts 280°
2026-04-25 09:53 -41.93357 65.61691 38277 ft 450 kts 280°
2026-04-25 09:53 -41.92062 65.53463 38281 ft 450 kts 280°
2026-04-25 09:54 -41.90761 65.45229 38295 ft 451 kts 280°
2026-04-25 09:54 -41.89453 65.36998 38290 ft 451 kts 280°
2026-04-25 09:55 -41.88139 65.28762 38272 ft 451 kts 280°
2026-04-25 09:55 -41.87042 65.21920 38286 ft 451 kts 280°
2026-04-25 09:56 -41.85719 65.13702 38290 ft 451 kts 280°
2026-04-25 09:56 -41.84390 65.05481 38297 ft 451 kts 280°
2026-04-25 09:57 -41.83054 64.97268 38292 ft 451 kts 280°
2026-04-25 09:57 -41.81707 64.89063 38294 ft 450 kts 280°
2026-04-25 09:58 -41.80355 64.80860 38303 ft 451 kts 280°
2026-04-25 09:58 -41.78997 64.72654 38308 ft 451 kts 281°
2026-04-25 09:59 -41.77633 64.64448 38301 ft 451 kts 281°
2026-04-25 09:59 -41.76263 64.56247 38307 ft 451 kts 281°
2026-04-25 10:00 -41.74887 64.48042 38309 ft 451 kts 281°
2026-04-25 10:00 -41.73515 64.39903 38310 ft 451 kts 281°
2026-04-25 10:01 -41.72127 64.31708 38310 ft 451 kts 281°
2026-04-25 10:01 -41.70733 64.23514 38310 ft 451 kts 281°
2026-04-25 10:02 -41.69335 64.15332 38314 ft 451 kts 281°
2026-04-25 10:02 -41.67930 64.07145 38320 ft 451 kts 281°
2026-04-25 10:03 -41.66518 63.98960 38312 ft 452 kts 281°
2026-04-25 10:03 -41.65099 63.90771 38327 ft 452 kts 281°
2026-04-25 10:04 -41.63672 63.82571 38325 ft 453 kts 281°
2026-04-25 10:04 -41.62239 63.74375 38325 ft 453 kts 281°
2026-04-25 10:05 -41.60800 63.66178 38330 ft 453 kts 281°
2026-04-25 10:05 -41.59353 63.57972 38332 ft 454 kts 281°
2026-04-25 10:06 -41.57897 63.49757 38337 ft 455 kts 281°
2026-04-25 10:06 -41.56433 63.41533 38328 ft 455 kts 281°
2026-04-25 10:07 -41.54970 63.33352 38340 ft 456 kts 281°
2026-04-25 10:07 -41.53492 63.25121 38344 ft 456 kts 281°
2026-04-25 10:08 -41.52008 63.16889 38336 ft 457 kts 282°
2026-04-25 10:08 -41.50515 63.08651 38350 ft 457 kts 282°
2026-04-25 10:09 -41.49017 63.00420 38355 ft 457 kts 282°
2026-04-25 10:09 -41.47513 62.92190 38339 ft 457 kts 282°
2026-04-25 10:10 -41.46002 62.83958 38349 ft 457 kts 282°
2026-04-25 10:10 -41.44486 62.75733 38350 ft 457 kts 282°
2026-04-25 10:11 -41.42971 62.67548 38359 ft 458 kts 282°
2026-04-25 10:11 -41.41428 62.59252 38368 ft 458 kts 282°
2026-04-25 10:12 -41.39888 62.51008 38364 ft 459 kts 282°
2026-04-25 10:13 -41.37576 62.38694 38365 ft 459 kts 282°
2026-04-25 10:13 -41.36018 62.30436 38363 ft 460 kts 283°
2026-04-25 10:14 -41.34452 62.22177 38363 ft 460 kts 283°
2026-04-25 10:14 -41.32878 62.13912 38376 ft 461 kts 283°
2026-04-25 10:15 -41.31299 62.05652 38372 ft 461 kts 283°
2026-04-25 10:15 -41.29712 61.97385 38382 ft 461 kts 283°
2026-04-25 10:16 -41.28122 61.89134 38382 ft 461 kts 283°
2026-04-25 10:16 -41.26522 61.80872 38392 ft 462 kts 283°
2026-04-25 10:17 -41.24913 61.72598 38365 ft 462 kts 283°
2026-04-25 10:17 -41.23311 61.64395 38366 ft 462 kts 283°
2026-04-25 10:18 -41.21694 61.56142 38365 ft 462 kts 283°
2026-04-25 10:18 -41.20071 61.47896 38363 ft 462 kts 283°
2026-04-25 10:19 -41.18440 61.39644 38375 ft 462 kts 283°
2026-04-25 10:19 -41.16802 61.31394 38367 ft 462 kts 283°
2026-04-25 10:20 -41.15159 61.23149 38380 ft 462 kts 283°
2026-04-25 10:20 -41.13510 61.14909 38378 ft 462 kts 283°
2026-04-25 10:21 -41.11857 61.06681 38402 ft 462 kts 283°
2026-04-25 10:21 -41.10197 60.98446 38393 ft 462 kts 284°
2026-04-25 10:22 -41.08531 60.90220 38398 ft 463 kts 284°
2026-04-25 10:22 -41.06857 60.81989 38376 ft 463 kts 284°
2026-04-25 10:23 -41.05186 60.73809 38391 ft 463 kts 284°
2026-04-25 10:23 -41.03501 60.65586 38393 ft 463 kts 284°
2026-04-25 10:24 -41.01811 60.57373 38407 ft 462 kts 284°
2026-04-25 10:24 -41.00110 60.49141 38403 ft 463 kts 284°
2026-04-25 10:25 -40.98404 60.40917 38413 ft 463 kts 284°
2026-04-25 10:25 -40.96692 60.32698 38402 ft 463 kts 284°
2026-04-25 10:26 -40.94975 60.24484 38414 ft 463 kts 284°
2026-04-25 10:26 -40.93266 60.16337 38405 ft 463 kts 285°
2026-04-25 10:27 -40.91538 60.08138 38420 ft 463 kts 285°
2026-04-25 10:27 -40.89804 59.99938 38426 ft 463 kts 284°
2026-04-25 10:28 -40.88063 59.91739 38423 ft 463 kts 284°
2026-04-25 10:28 -40.86315 59.83537 38412 ft 464 kts 285°
2026-04-25 10:29 -40.84561 59.75342 38423 ft 463 kts 285°
2026-04-25 10:29 -40.82804 59.67161 38413 ft 463 kts 285°
2026-04-25 10:30 -40.81039 59.58976 38426 ft 463 kts 285°
2026-04-25 10:30 -40.79271 59.50805 38424 ft 463 kts 285°
2026-04-25 10:31 -40.77494 59.42626 38432 ft 464 kts 285°
2026-04-25 10:31 -40.75709 59.34440 38424 ft 464 kts 285°
2026-04-25 10:32 -40.73919 59.26262 38425 ft 465 kts 285°
2026-04-25 10:32 -40.72121 59.18084 38437 ft 464 kts 285°
2026-04-25 10:33 -40.70320 59.09915 38439 ft 464 kts 285°
2026-04-25 10:33 -40.68526 59.01811 38435 ft 464 kts 285°
2026-04-25 10:34 -40.66712 58.93648 38426 ft 464 kts 285°
2026-04-25 10:34 -40.64891 58.85484 38435 ft 465 kts 285°
2026-04-25 10:35 -40.63063 58.77314 38434 ft 465 kts 285°
2026-04-25 10:35 -40.61229 58.69153 38435 ft 465 kts 285°
2026-04-25 10:36 -40.59390 58.60995 38427 ft 465 kts 286°
2026-04-25 10:36 -40.57544 58.52840 38439 ft 465 kts 286°
2026-04-25 10:37 -40.55692 58.44686 38440 ft 466 kts 286°
2026-04-25 10:37 -40.53831 58.36522 38444 ft 466 kts 286°
2026-04-25 10:38 -40.51976 58.28417 38438 ft 466 kts 286°
2026-04-25 10:38 -40.50101 58.20254 38449 ft 466 kts 286°
2026-04-25 10:39 -40.48223 58.12105 38447 ft 466 kts 286°
2026-04-25 10:39 -40.46340 58.03962 38443 ft 466 kts 286°
2026-04-25 10:40 -40.44450 57.95824 38448 ft 466 kts 286°
2026-04-25 10:40 -40.42555 57.87684 38451 ft 466 kts 286°
2026-04-25 10:41 -40.40653 57.79551 38449 ft 467 kts 286°
2026-04-25 10:41 -40.38743 57.71412 38447 ft 467 kts 286°
2026-04-25 10:42 -40.36825 57.63264 38455 ft 467 kts 286°
2026-04-25 10:42 -40.35224 57.56489 38454 ft 467 kts 286°
2026-04-25 10:43 -40.33297 57.48357 38447 ft 467 kts 287°
2026-04-25 10:43 -40.31363 57.40225 38461 ft 467 kts 287°
2026-04-25 10:44 -40.29425 57.32103 38451 ft 468 kts 287°
2026-04-25 10:44 -40.27477 57.23969 38465 ft 468 kts 287°
2026-04-25 10:45 -40.25522 57.15833 38457 ft 468 kts 287°
2026-04-25 10:45 -40.23564 57.07703 38468 ft 468 kts 287°
2026-04-25 10:46 -40.21490 56.99683 38459 ft 468 kts 292°
2026-04-25 10:46 -40.18536 56.92093 38470 ft 468 kts 297°
2026-04-25 10:47 -40.15402 56.84619 38454 ft 469 kts 297°
2026-04-25 10:47 -40.12282 56.77136 38470 ft 469 kts 297°
2026-04-25 10:48 -40.09168 56.69628 38459 ft 469 kts 297°
2026-04-25 10:48 -40.06080 56.62182 38462 ft 470 kts 297°
2026-04-25 10:49 -40.02963 56.54680 38472 ft 470 kts 297°
2026-04-25 10:49 -39.99837 56.47179 38468 ft 471 kts 297°
2026-04-25 10:50 -39.96703 56.39679 38461 ft 471 kts 298°
2026-04-25 10:50 -39.93568 56.32195 38470 ft 470 kts 297°
2026-04-25 10:51 -39.90427 56.24715 38467 ft 470 kts 298°
2026-04-25 10:51 -39.87288 56.17256 38475 ft 470 kts 298°
2026-04-25 10:52 -39.84141 56.09797 38462 ft 470 kts 298°
2026-04-25 10:52 -39.80994 56.02356 38473 ft 470 kts 298°
2026-04-25 10:53 -39.77857 55.94958 38473 ft 470 kts 298°
2026-04-25 10:53 -39.74697 55.87522 38472 ft 470 kts 298°
2026-04-25 10:54 -39.71527 55.80081 38477 ft 471 kts 298°
2026-04-25 10:54 -39.68348 55.72640 38477 ft 471 kts 298°
2026-04-25 10:55 -39.65167 55.65208 38472 ft 471 kts 298°
2026-04-25 10:55 -39.61978 55.57777 38479 ft 471 kts 298°
2026-04-25 10:56 -39.58784 55.50352 38482 ft 471 kts 298°
2026-04-25 10:56 -39.55584 55.42933 38480 ft 472 kts 298°
2026-04-25 10:57 -39.52381 55.35520 38478 ft 472 kts 298°
2026-04-25 10:57 -39.49169 55.28107 38480 ft 472 kts 298°
2026-04-25 10:58 -39.45955 55.20708 38480 ft 472 kts 298°
2026-04-25 10:58 -39.42735 55.13310 38481 ft 472 kts 298°
2026-04-25 10:59 -39.39509 55.05918 38480 ft 472 kts 298°
2026-04-25 10:59 -39.36279 54.98534 38483 ft 472 kts 298°
2026-04-25 11:00 -39.33045 54.91158 38478 ft 472 kts 298°
2026-04-25 11:00 -39.29823 54.83827 38483 ft 472 kts 298°
2026-04-25 11:01 -39.26587 54.76480 38483 ft 472 kts 299°
2026-04-25 11:01 -39.23340 54.69128 38478 ft 472 kts 299°
2026-04-25 11:02 -39.20087 54.61778 38478 ft 472 kts 299°
2026-04-25 11:02 -39.16828 54.54432 38478 ft 472 kts 299°
2026-04-25 11:03 -39.13570 54.47104 38474 ft 471 kts 299°
2026-04-25 11:03 -39.10309 54.39789 38479 ft 471 kts 299°
2026-04-25 11:04 -39.07046 54.32486 38477 ft 470 kts 299°
2026-04-25 11:04 -39.03781 54.25195 38477 ft 470 kts 299°
2026-04-25 11:05 -39.00516 54.17918 38480 ft 470 kts 299°
2026-04-25 11:05 -38.97246 54.10651 38480 ft 470 kts 299°
2026-04-25 11:06 -38.93972 54.03388 38483 ft 470 kts 299°
2026-04-25 11:06 -38.90691 53.96130 38478 ft 470 kts 299°
2026-04-25 11:07 -38.87403 53.88871 38484 ft 470 kts 299°
2026-04-25 11:07 -38.84112 53.81623 38479 ft 470 kts 299°
2026-04-25 11:08 -38.80813 53.74372 38485 ft 471 kts 299°
2026-04-25 11:08 -38.77508 53.67127 38488 ft 471 kts 299°
2026-04-25 11:09 -38.74221 53.59935 38478 ft 471 kts 299°
2026-04-25 11:09 -38.70905 53.52697 38476 ft 471 kts 299°
2026-04-25 11:10 -38.67581 53.45459 38478 ft 472 kts 299°
2026-04-25 11:10 -38.64253 53.38227 38492 ft 472 kts 300°
2026-04-25 11:11 -38.60921 53.31004 38485 ft 471 kts 300°
2026-04-25 11:11 -38.57584 53.23786 38471 ft 472 kts 300°
2026-04-25 11:12 -38.54242 53.16575 38485 ft 471 kts 300°
2026-04-25 11:12 -38.50896 53.09371 38489 ft 472 kts 300°
2026-04-25 11:13 -38.47547 53.02175 38474 ft 472 kts 300°
2026-04-25 11:13 -38.44192 52.94983 38474 ft 472 kts 300°
2026-04-25 11:14 -38.40830 52.87793 38481 ft 472 kts 300°
2026-04-25 11:14 -38.37466 52.80613 38484 ft 472 kts 300°
2026-04-25 11:15 -38.34096 52.73440 38477 ft 472 kts 300°
2026-04-25 11:15 -38.30719 52.66264 38484 ft 472 kts 300°
2026-04-25 11:16 -38.25646 52.55516 38480 ft 472 kts 300°
2026-04-25 11:16 -38.22256 52.48355 38478 ft 473 kts 300°
2026-04-25 11:17 -38.18885 52.41249 38482 ft 473 kts 300°
2026-04-25 11:17 -38.15484 52.34093 38484 ft 473 kts 300°
2026-04-25 11:18 -38.12076 52.26941 38475 ft 473 kts 300°
2026-04-25 11:18 -38.08664 52.19797 38482 ft 473 kts 300°
2026-04-25 11:19 -38.05247 52.12656 38484 ft 473 kts 300°
2026-04-25 11:19 -38.01828 52.05526 38479 ft 473 kts 300°
2026-04-25 11:20 -37.98402 51.98399 38476 ft 473 kts 300°
2026-04-25 11:20 -37.94972 51.91279 38479 ft 473 kts 300°
2026-04-25 11:21 -37.91536 51.84162 38479 ft 473 kts 300°
2026-04-25 11:21 -37.88121 51.77104 38478 ft 473 kts 300°
2026-04-25 11:22 -37.85239 51.71159 38478 ft 473 kts 300°
2026-04-25 11:22 -37.81233 51.62914 38477 ft 473 kts 300°
2026-04-25 11:23 -37.77786 51.55835 38471 ft 473 kts 300°
2026-04-25 11:23 -37.74331 51.48756 38475 ft 473 kts 300°
2026-04-25 11:24 -37.70877 51.41693 38472 ft 473 kts 300°
2026-04-25 11:24 -37.67413 51.34625 38472 ft 473 kts 300°
2026-04-25 11:25 -37.63948 51.27571 38470 ft 473 kts 300°
2026-04-25 11:25 -37.60478 51.20523 38472 ft 473 kts 300°
2026-04-25 11:26 -37.57006 51.13485 38469 ft 472 kts 300°
2026-04-25 11:26 -37.53532 51.06457 38469 ft 472 kts 300°
2026-04-25 11:27 -37.50055 50.99439 38469 ft 472 kts 300°
2026-04-25 11:27 -37.47159 50.93605 38469 ft 472 kts 300°
2026-04-25 11:28 -37.43082 50.85407 38458 ft 472 kts 300°
2026-04-25 11:28 -37.39592 50.78407 38456 ft 472 kts 300°
2026-04-25 11:29 -37.36100 50.71418 38471 ft 472 kts 300°
2026-04-25 11:29 -37.32605 50.64438 38465 ft 471 kts 300°
2026-04-25 11:30 -37.29132 50.57517 38466 ft 471 kts 300°
2026-04-25 11:30 -37.25636 50.50562 38463 ft 471 kts 300°
2026-04-25 11:31 -37.22704 50.44742 38460 ft 470 kts 300°
2026-04-25 11:31 -37.19207 50.37814 38451 ft 470 kts 300°
2026-04-25 11:32 -37.15708 50.30893 38458 ft 469 kts 300°
2026-04-25 11:32 -37.12229 50.24029 38455 ft 469 kts 300°
2026-04-25 11:33 -37.08724 50.17126 38448 ft 469 kts 300°
2026-04-25 11:33 -37.05223 50.10243 38451 ft 469 kts 300°
2026-04-25 11:34 -37.01713 50.03358 38454 ft 468 kts 300°
2026-04-25 11:34 -36.98155 49.96512 38442 ft 469 kts 301°
2026-04-25 11:35 -36.94410 49.89835 38450 ft 469 kts 302°
2026-04-25 11:35 -36.90631 49.83196 38450 ft 469 kts 302°
2026-04-25 11:36 -36.86871 49.76546 38449 ft 468 kts 302°
2026-04-25 11:36 -36.83129 49.69896 38446 ft 468 kts 302°
2026-04-25 11:37 -36.79389 49.63250 38448 ft 468 kts 302°
2026-04-25 11:37 -36.75674 49.56661 38442 ft 467 kts 302°
2026-04-25 11:38 -36.71931 49.50039 38436 ft 467 kts 302°
2026-04-25 11:38 -36.68189 49.43431 38441 ft 466 kts 302°
2026-04-25 11:39 -36.64449 49.36841 38437 ft 466 kts 302°
2026-04-25 11:39 -36.60706 49.30255 38432 ft 465 kts 302°
2026-04-25 11:40 -36.56972 49.23702 38429 ft 464 kts 302°
2026-04-25 11:40 -36.53238 49.17161 38442 ft 462 kts 302°
2026-04-25 11:41 -36.49515 49.10649 38441 ft 462 kts 302°
2026-04-25 11:41 -36.45796 49.04159 38427 ft 460 kts 301°
2026-04-25 11:42 -36.42081 48.97687 38429 ft 460 kts 301°
2026-04-25 11:42 -36.38392 48.91271 38427 ft 459 kts 301°
2026-04-25 11:43 -36.34677 48.84824 38428 ft 459 kts 301°
2026-04-25 11:43 -36.30959 48.78384 38427 ft 459 kts 301°
2026-04-25 11:44 -36.27236 48.71947 38423 ft 460 kts 301°
2026-04-25 11:44 -36.23505 48.65507 38424 ft 460 kts 302°
2026-04-25 11:45 -36.19771 48.59075 38408 ft 460 kts 301°
2026-04-25 11:45 -36.16037 48.52656 38414 ft 460 kts 301°
2026-04-25 11:46 -36.12294 48.46232 38412 ft 460 kts 301°
2026-04-25 11:46 -36.08554 48.39826 38406 ft 459 kts 301°
2026-04-25 11:47 -36.04812 48.33429 38415 ft 459 kts 301°
2026-04-25 11:47 -36.01064 48.27034 38412 ft 459 kts 301°
2026-04-25 11:48 -35.97318 48.20653 38407 ft 458 kts 301°
2026-04-25 11:48 -35.93579 48.14296 38396 ft 457 kts 301°
2026-04-25 11:49 -35.89845 48.07959 38397 ft 456 kts 301°
2026-04-25 11:49 -35.86113 48.01637 38402 ft 455 kts 301°
2026-04-25 11:50 -35.82386 47.95335 38398 ft 455 kts 301°
2026-04-25 11:50 -35.78686 47.89090 38402 ft 454 kts 301°
2026-04-25 11:51 -35.74958 47.82810 38400 ft 454 kts 301°
2026-04-25 11:51 -35.71229 47.76537 38391 ft 454 kts 301°
2026-04-25 11:52 -35.67496 47.70271 38391 ft 453 kts 301°
2026-04-25 11:52 -35.63765 47.64020 38390 ft 453 kts 301°
2026-04-25 11:53 -35.60031 47.57774 38369 ft 453 kts 301°
2026-04-25 11:53 -35.56295 47.51537 38386 ft 453 kts 301°
2026-04-25 11:54 -35.52558 47.45307 38385 ft 453 kts 301°
2026-04-25 11:55 -35.46940 47.35965 38370 ft 453 kts 302°
2026-04-25 11:55 -35.43220 47.29793 38377 ft 452 kts 302°
2026-04-25 11:56 -35.39479 47.23596 38375 ft 452 kts 302°
2026-04-25 11:56 -35.35733 47.17403 38363 ft 452 kts 302°
2026-04-25 11:57 -35.31984 47.11216 38377 ft 452 kts 302°
2026-04-25 11:57 -35.28231 47.05032 38371 ft 453 kts 302°
2026-04-25 11:58 -35.24470 46.98847 38371 ft 452 kts 302°
2026-04-25 11:58 -35.20709 46.92673 38379 ft 452 kts 302°
2026-04-25 11:59 -35.16949 46.86509 38373 ft 452 kts 302°
2026-04-25 11:59 -35.13180 46.80344 38362 ft 452 kts 302°
2026-04-25 12:00 -35.07525 46.71113 38371 ft 452 kts 302°
2026-04-25 12:01 -35.01866 46.61900 38357 ft 452 kts 302°
2026-04-25 12:01 -34.98111 46.55799 38351 ft 452 kts 302°
2026-04-25 12:02 -34.92449 46.46621 38357 ft 451 kts 302°
2026-04-25 12:02 -34.88672 46.40512 38353 ft 451 kts 302°
2026-04-25 12:03 -34.84900 46.34421 38337 ft 450 kts 302°
2026-04-25 12:03 -34.81127 46.28338 38341 ft 450 kts 302°
2026-04-25 12:04 -34.77355 46.22269 38349 ft 449 kts 302°
2026-04-25 12:04 -34.73582 46.16207 38337 ft 449 kts 302°
2026-04-25 12:05 -34.69809 46.10155 38341 ft 449 kts 302°
2026-04-25 12:05 -34.66036 46.04114 38343 ft 449 kts 302°
2026-04-25 12:06 -34.62260 45.98079 38343 ft 449 kts 302°
2026-04-25 12:06 -34.58485 45.92056 38328 ft 448 kts 303°
2026-04-25 12:07 -34.54710 45.86044 38332 ft 448 kts 303°
2026-04-25 12:07 -34.50935 45.80040 38331 ft 447 kts 303°
2026-04-25 12:08 -34.47159 45.74045 38325 ft 447 kts 303°
2026-04-25 12:08 -34.43388 45.68069 38329 ft 446 kts 303°
2026-04-25 12:09 -34.39615 45.62098 38325 ft 446 kts 303°
2026-04-25 12:09 -34.35837 45.56130 38322 ft 446 kts 303°
2026-04-25 12:10 -34.32062 45.50176 38316 ft 446 kts 303°
2026-04-25 12:10 -34.28284 45.44229 38316 ft 446 kts 303°
2026-04-25 12:11 -34.24502 45.38284 38298 ft 446 kts 303°
2026-04-25 12:11 -34.20720 45.32349 38324 ft 446 kts 303°
2026-04-25 12:12 -34.17575 45.27421 38318 ft 446 kts 303°
2026-04-25 12:12 -34.13170 45.20529 38317 ft 446 kts 303°
2026-04-25 12:13 -34.09377 45.14606 38306 ft 446 kts 303°
2026-04-25 12:13 -34.05580 45.08685 38305 ft 446 kts 303°
2026-04-25 12:14 -34.01778 45.02766 38304 ft 447 kts 303°
2026-04-25 12:14 -33.98350 44.96577 38301 ft 442 kts 295°
2026-04-25 12:15 -33.95396 44.90089 38301 ft 442 kts 295°
2026-04-25 12:15 -33.92423 44.83600 38306 ft 442 kts 295°
2026-04-25 12:16 -33.89939 44.78213 38301 ft 442 kts 295°
2026-04-25 12:16 -33.86458 44.70696 38300 ft 442 kts 295°
2026-04-25 12:17 -33.83457 44.64234 38297 ft 442 kts 295°
2026-04-25 12:17 -33.80943 44.58827 38300 ft 442 kts 295°
2026-04-25 12:18 -33.77940 44.52381 38292 ft 442 kts 296°
2026-04-25 12:18 -33.74938 44.45947 38294 ft 441 kts 296°
2026-04-25 12:19 -33.70432 44.36311 38276 ft 441 kts 296°
2026-04-25 12:20 -33.67428 44.29904 38291 ft 440 kts 296°
2026-04-25 12:20 -33.64427 44.23514 38291 ft 439 kts 296°
2026-04-25 12:21 -33.61447 44.17178 38296 ft 439 kts 296°
2026-04-25 12:21 -33.58444 44.10806 38281 ft 438 kts 296°
2026-04-25 12:22 -33.55441 44.04446 38291 ft 438 kts 296°
2026-04-25 12:22 -33.52433 43.98084 38284 ft 439 kts 296°
2026-04-25 12:23 -33.49421 43.91725 38283 ft 439 kts 296°
2026-04-25 12:23 -33.46404 43.85370 38281 ft 439 kts 296°
2026-04-25 12:24 -33.43377 43.79004 38280 ft 440 kts 296°
2026-04-25 12:24 -33.40350 43.72647 38272 ft 440 kts 296°
2026-04-25 12:25 -33.37315 43.66287 38279 ft 440 kts 296°
2026-04-25 12:25 -33.34275 43.59926 38278 ft 440 kts 297°
2026-04-25 12:26 -33.31232 43.53571 38249 ft 441 kts 297°
2026-04-25 12:26 -33.28183 43.47216 38269 ft 441 kts 297°
2026-04-25 12:27 -33.25131 43.40865 38280 ft 441 kts 297°
2026-04-25 12:27 -33.22072 43.34510 38264 ft 441 kts 297°
2026-04-25 12:28 -33.19032 43.28205 38259 ft 441 kts 297°
2026-04-25 12:28 -33.15968 43.21862 38276 ft 441 kts 297°
2026-04-25 12:29 -33.12894 43.15509 38263 ft 442 kts 297°
2026-04-25 12:29 -33.09819 43.09166 38246 ft 442 kts 297°
2026-04-25 12:30 -33.06738 43.02821 38262 ft 442 kts 297°
2026-04-25 12:30 -33.03650 42.96473 38262 ft 443 kts 297°
2026-04-25 12:31 -33.00555 42.90122 38259 ft 443 kts 297°
2026-04-25 12:31 -32.97458 42.83776 38248 ft 443 kts 298°
2026-04-25 12:32 -32.94356 42.77432 38255 ft 443 kts 298°
2026-04-25 12:32 -32.91247 42.71084 38253 ft 444 kts 298°
2026-04-25 12:33 -32.88134 42.64740 38242 ft 444 kts 298°
2026-04-25 12:33 -32.85018 42.58401 38251 ft 444 kts 298°
2026-04-25 12:34 -32.81893 42.52055 38247 ft 445 kts 298°
2026-04-25 12:34 -32.78782 42.45748 38245 ft 445 kts 298°
2026-04-25 12:35 -32.75650 42.39408 38246 ft 445 kts 298°
2026-04-25 12:35 -32.72510 42.33064 38243 ft 445 kts 298°
2026-04-25 12:36 -32.69365 42.26719 38245 ft 445 kts 298°
2026-04-25 12:36 -32.66217 42.20382 38238 ft 445 kts 298°
2026-04-25 12:37 -32.63068 42.14051 38240 ft 446 kts 298°
2026-04-25 12:37 -32.59914 42.07722 38239 ft 446 kts 298°
2026-04-25 12:38 -32.56759 42.01402 38219 ft 446 kts 299°
2026-04-25 12:38 -32.53601 41.95086 38236 ft 445 kts 299°
2026-04-25 12:39 -32.50438 41.88773 38233 ft 446 kts 299°
2026-04-25 12:39 -32.47270 41.82459 38238 ft 446 kts 299°
2026-04-25 12:40 -32.44097 41.76144 38234 ft 446 kts 299°
2026-04-25 12:40 -32.40923 41.69840 38233 ft 446 kts 299°
2026-04-25 12:41 -32.37745 41.63539 38234 ft 446 kts 299°
2026-04-25 12:41 -32.34582 41.57278 38222 ft 446 kts 299°
2026-04-25 12:42 -32.31399 41.50986 38227 ft 446 kts 299°
2026-04-25 12:42 -32.28211 41.44698 38229 ft 446 kts 299°
2026-04-25 12:43 -32.25018 41.38408 38227 ft 446 kts 299°
2026-04-25 12:43 -32.20218 41.28973 38222 ft 446 kts 299°
2026-04-25 12:44 -32.17018 41.22697 38225 ft 447 kts 299°
2026-04-25 12:45 -32.12205 41.13277 38222 ft 447 kts 299°
2026-04-25 12:45 -32.07385 41.03866 38232 ft 447 kts 299°
2026-04-25 12:46 -32.04187 40.97635 38214 ft 447 kts 299°
2026-04-25 12:46 -32.00963 40.91365 38220 ft 447 kts 299°
2026-04-25 12:47 -31.97739 40.85103 38206 ft 447 kts 299°
2026-04-25 12:47 -31.94511 40.78846 38208 ft 447 kts 299°
2026-04-25 12:48 -31.91280 40.72592 38204 ft 447 kts 299°
2026-04-25 12:48 -31.88047 40.66345 38195 ft 447 kts 300°
2026-04-25 12:49 -31.84815 40.60110 38204 ft 446 kts 300°
2026-04-25 12:49 -31.81580 40.53878 38204 ft 446 kts 300°
2026-04-25 12:50 -31.78342 40.47654 38201 ft 446 kts 300°
2026-04-25 12:50 -31.75101 40.41430 38188 ft 446 kts 300°
2026-04-25 12:51 -31.71877 40.35252 38201 ft 446 kts 300°
2026-04-25 12:51 -31.68633 40.29044 38196 ft 446 kts 300°
2026-04-25 12:52 -31.65385 40.22841 38207 ft 446 kts 300°
2026-04-25 12:52 -31.62134 40.16639 38183 ft 445 kts 300°
2026-04-25 12:53 -31.58908 40.10497 38198 ft 445 kts 300°
2026-04-25 12:53 -31.55656 40.04313 38201 ft 445 kts 300°
2026-04-25 12:54 -31.52386 39.98106 38187 ft 444 kts 300°
2026-04-25 12:54 -31.49163 39.92000 38204 ft 443 kts 300°
2026-04-25 12:55 -31.46446 39.86858 38195 ft 442 kts 300°
2026-04-25 12:55 -31.42684 39.79750 38182 ft 442 kts 300°
2026-04-25 12:56 -31.39447 39.73644 38194 ft 441 kts 300°
2026-04-25 12:56 -31.36208 39.67546 38194 ft 441 kts 300°
2026-04-25 12:57 -31.32970 39.61457 38183 ft 440 kts 300°
2026-04-25 12:57 -31.29731 39.55377 38190 ft 440 kts 300°
2026-04-25 12:58 -31.26493 39.49309 38191 ft 440 kts 300°
2026-04-25 12:58 -31.23250 39.43240 38184 ft 440 kts 300°
2026-04-25 12:59 -31.20008 39.37183 38181 ft 440 kts 300°
2026-04-25 12:59 -31.16759 39.31121 38186 ft 440 kts 300°
2026-04-25 13:00 -31.15131 39.28088 38180 ft 440 kts 300°
2026-04-25 13:00 -31.10268 39.19041 38178 ft 440 kts 300°
2026-04-25 13:01 -31.07007 39.12985 38182 ft 440 kts 300°
2026-04-25 13:01 -31.03746 39.06937 38186 ft 441 kts 301°
2026-04-25 13:02 -31.00479 39.00889 38183 ft 441 kts 301°
2026-04-25 13:02 -30.97131 38.94897 38176 ft 441 kts 302°
2026-04-25 13:03 -30.93698 38.88976 38185 ft 441 kts 302°
2026-04-25 13:03 -30.90262 38.83054 38177 ft 441 kts 302°
2026-04-25 13:04 -30.86836 38.77130 38171 ft 441 kts 302°
2026-04-25 13:04 -30.83992 38.72207 38169 ft 441 kts 302°
2026-04-25 13:05 -30.80569 38.66285 38172 ft 441 kts 302°
2026-04-25 13:05 -30.77145 38.60370 38168 ft 441 kts 302°
2026-04-25 13:06 -30.73713 38.54450 38170 ft 441 kts 302°
2026-04-25 13:06 -30.70276 38.48533 38162 ft 441 kts 302°
2026-04-25 13:07 -30.66845 38.42634 38164 ft 441 kts 302°
2026-04-25 13:07 -30.63432 38.36774 38163 ft 441 kts 302°
2026-04-25 13:08 -30.59995 38.30881 38161 ft 440 kts 302°
2026-04-25 13:08 -30.56559 38.25000 38161 ft 440 kts 302°
2026-04-25 13:09 -30.53125 38.19129 38161 ft 440 kts 302°
2026-04-25 13:09 -30.49687 38.13261 38155 ft 440 kts 302°
2026-04-25 13:10 -30.46239 38.07384 38153 ft 441 kts 302°
2026-04-25 13:10 -30.42786 38.01509 38150 ft 441 kts 302°
2026-04-25 13:11 -30.39330 37.95634 38152 ft 441 kts 302°
2026-04-25 13:11 -30.35867 37.89758 38150 ft 442 kts 302°
2026-04-25 13:12 -30.32393 37.83872 38148 ft 443 kts 302°
2026-04-25 13:12 -30.29495 37.78969 38148 ft 443 kts 302°
2026-04-25 13:13 -30.25443 37.72124 38144 ft 444 kts 302°
2026-04-25 13:13 -30.21946 37.66223 38151 ft 445 kts 302°
2026-04-25 13:14 -30.18438 37.60315 38142 ft 446 kts 302°
2026-04-25 13:14 -30.14918 37.54396 38140 ft 447 kts 302°
2026-04-25 13:15 -30.11398 37.48484 38140 ft 446 kts 302°
2026-04-25 13:15 -30.07874 37.42576 38140 ft 447 kts 302°
2026-04-25 13:16 -30.04367 37.36703 38134 ft 447 kts 302°
2026-04-25 13:16 -30.00838 37.30802 38122 ft 446 kts 303°
2026-04-25 13:17 -29.97314 37.24918 38128 ft 445 kts 302°
2026-04-25 13:17 -29.93786 37.19036 38131 ft 446 kts 302°
2026-04-25 13:18 -29.90257 37.13159 38133 ft 446 kts 302°
2026-04-25 13:18 -29.86721 37.07281 38105 ft 447 kts 303°
2026-04-25 13:19 -29.83179 37.01402 38126 ft 447 kts 303°
2026-04-25 13:19 -29.80232 36.96516 38123 ft 447 kts 302°
2026-04-25 13:20 -29.76076 36.89635 38127 ft 449 kts 302°
2026-04-25 13:20 -29.72507 36.83736 38126 ft 450 kts 303°
2026-04-25 13:21 -29.68928 36.77829 38124 ft 450 kts 303°
2026-04-25 13:21 -29.65368 36.71963 38125 ft 451 kts 302°
2026-04-25 13:22 -29.61773 36.66046 38122 ft 451 kts 302°
2026-04-25 13:23 -29.56372 36.57172 38104 ft 452 kts 303°
2026-04-25 13:23 -29.52766 36.51260 38108 ft 452 kts 303°
2026-04-25 13:24 -29.49152 36.45343 38118 ft 452 kts 303°
2026-04-25 13:24 -29.45538 36.39433 38114 ft 453 kts 303°
2026-04-25 13:25 -29.41920 36.33526 38112 ft 453 kts 303°
2026-04-25 13:25 -29.38298 36.27620 38120 ft 453 kts 303°
2026-04-25 13:26 -29.34673 36.21718 38114 ft 453 kts 303°
2026-04-25 13:26 -29.31039 36.15811 38107 ft 453 kts 303°
2026-04-25 13:27 -29.27401 36.09904 38119 ft 454 kts 303°
2026-04-25 13:27 -29.23779 36.04033 38104 ft 454 kts 303°
2026-04-25 13:28 -29.20129 35.98124 38104 ft 454 kts 303°
2026-04-25 13:28 -29.16474 35.92215 38099 ft 455 kts 303°
2026-04-25 13:29 -29.12816 35.86311 38103 ft 455 kts 303°
2026-04-25 13:29 -29.09153 35.80405 38084 ft 455 kts 303°
2026-04-25 13:30 -29.03655 35.71559 38101 ft 455 kts 303°
2026-04-25 13:31 -28.98147 35.62714 38101 ft 456 kts 303°
2026-04-25 13:31 -28.94488 35.56850 38086 ft 456 kts 303°
2026-04-25 13:32 -28.90778 35.50911 38089 ft 456 kts 303°
2026-04-25 13:32 -28.87112 35.45051 38091 ft 457 kts 303°
2026-04-25 13:33 -28.83412 35.39145 38095 ft 458 kts 303°
2026-04-25 13:33 -28.79707 35.33241 38092 ft 458 kts 303°
2026-04-25 13:34 -28.75996 35.27334 38092 ft 458 kts 303°
2026-04-25 13:34 -28.72285 35.21435 38090 ft 458 kts 303°
2026-04-25 13:35 -28.68567 35.15533 38094 ft 459 kts 303°
2026-04-25 13:35 -28.64843 35.09632 38089 ft 459 kts 303°
2026-04-25 13:36 -28.61116 35.03733 38077 ft 459 kts 303°
2026-04-25 13:36 -28.57387 34.97838 38090 ft 459 kts 303°
2026-04-25 13:37 -28.53654 34.91945 38090 ft 459 kts 303°
2026-04-25 13:37 -28.49915 34.86050 38091 ft 460 kts 303°
2026-04-25 13:38 -28.46356 34.80447 38087 ft 460 kts 303°
2026-04-25 13:38 -28.42839 34.74916 38079 ft 460 kts 303°
2026-04-25 13:39 -28.39099 34.69010 38088 ft 460 kts 302°
2026-04-25 13:39 -28.35703 34.62877 38090 ft 459 kts 299°
2026-04-25 13:40 -28.32909 34.57694 38081 ft 459 kts 299°
2026-04-25 13:40 -28.29019 34.50506 38075 ft 460 kts 300°
2026-04-25 13:41 -28.25660 34.44336 38085 ft 460 kts 300°
2026-04-25 13:41 -28.22285 34.38160 38086 ft 461 kts 300°
2026-04-25 13:42 -28.18904 34.31981 38082 ft 461 kts 300°
2026-04-25 13:42 -28.15520 34.25806 38082 ft 461 kts 300°
2026-04-25 13:43 -28.12129 34.19627 38076 ft 462 kts 300°
2026-04-25 13:43 -28.08737 34.13454 38085 ft 462 kts 300°
2026-04-25 13:44 -28.05342 34.07285 38081 ft 462 kts 300°
2026-04-25 13:44 -28.01942 34.01116 38079 ft 462 kts 300°
2026-04-25 13:45 -27.98537 33.94946 38089 ft 462 kts 300°
2026-04-25 13:45 -27.95125 33.88774 38073 ft 462 kts 300°
2026-04-25 13:46 -27.91738 33.82655 38078 ft 462 kts 300°
2026-04-25 13:46 -27.88327 33.76500 38076 ft 462 kts 300°
2026-04-25 13:47 -27.84913 33.70350 38074 ft 462 kts 300°
2026-04-25 13:47 -27.81496 33.64203 38077 ft 462 kts 300°
2026-04-25 13:48 -27.78074 33.58056 38066 ft 462 kts 300°
2026-04-25 13:48 -27.74650 33.51914 38080 ft 462 kts 300°
2026-04-25 13:49 -27.71217 33.45763 38075 ft 463 kts 300°
2026-04-25 13:49 -27.67779 33.39614 38073 ft 463 kts 300°
2026-04-25 13:50 -27.64340 33.33472 38071 ft 463 kts 300°
2026-04-25 13:50 -27.60896 33.27328 38073 ft 463 kts 300°
2026-04-25 13:51 -27.57450 33.21191 38067 ft 463 kts 300°
2026-04-25 13:51 -27.54003 33.15060 38070 ft 463 kts 300°
2026-04-25 13:52 -27.51837 33.11211 38068 ft 464 kts 300°
2026-04-25 13:53 -27.49619 33.07275 38070 ft 464 kts 300°
2026-04-25 13:54 -27.46162 33.01144 38053 ft 464 kts 300°
2026-04-25 13:54 -27.42695 32.95006 38018 ft 465 kts 300°
2026-04-25 13:54 -27.40941 32.91901 37318 ft 474 kts 300°
2026-04-25 13:55 -27.39198 32.88820 36634 ft 472 kts 300°
2026-04-25 13:55 -27.37439 32.85714 35851 ft 470 kts 300°
2026-04-25 13:55 -27.35676 32.82604 34932 ft 472 kts 300°
2026-04-25 13:55 -27.33911 32.79491 33993 ft 474 kts 300°
2026-04-25 13:56 -27.32476 32.76961 33105 ft 475 kts 300°
2026-04-25 13:56 -27.30696 32.73825 32062 ft 476 kts 301°
2026-04-25 13:56 -27.28911 32.70682 31017 ft 478 kts 301°
2026-04-25 13:56 -27.27129 32.67549 30300 ft 473 kts 301°
2026-04-25 13:57 -27.25364 32.64449 29479 ft 469 kts 301°
2026-04-25 13:57 -27.24181 32.62372 28946 ft 466 kts 301°
2026-04-25 13:57 -27.21876 32.58327 27963 ft 460 kts 301°
2026-04-25 13:57 -27.20156 32.55311 27253 ft 456 kts 301°
2026-04-25 13:58 -27.18452 32.52324 26554 ft 452 kts 301°
2026-04-25 13:58 -27.16762 32.49363 25882 ft 448 kts 301°
2026-04-25 13:58 -27.15088 32.46431 25271 ft 443 kts 301°
2026-04-25 13:58 -27.13436 32.43540 24663 ft 438 kts 301°
2026-04-25 13:59 -27.11796 32.40671 24058 ft 434 kts 301°
2026-04-25 13:59 -27.10168 32.37825 23395 ft 431 kts 301°
2026-04-25 13:59 -27.08548 32.34996 22653 ft 428 kts 301°
2026-04-25 13:59 -27.06925 32.32221 21966 ft 419 kts 304°
2026-04-25 14:00 -27.04836 32.29917 21055 ft 428 kts 324°
2026-04-25 14:00 -27.02146 32.28486 20388 ft 430 kts 341°
2026-04-25 14:00 -26.99200 32.27959 19849 ft 430 kts 357°
2026-04-25 14:00 -26.96244 32.28342 19298 ft 429 kts 13°
2026-04-25 14:01 -26.93501 32.29657 18723 ft 430 kts 31°
2026-04-25 14:01 -26.91185 32.31761 18124 ft 429 kts 45°
2026-04-25 14:01 -26.89476 32.34473 17480 ft 424 kts 62°
2026-04-25 14:01 -26.88216 32.37449 16722 ft 419 kts 62°
2026-04-25 14:02 -26.86562 32.40093 15843 ft 417 kts 41°
2026-04-25 14:02 -26.84189 32.41887 15203 ft 410 kts 22°
2026-04-25 14:02 -26.81501 32.42853 14586 ft 403 kts
2026-04-25 14:02 -26.79673 32.43035 14185 ft 394 kts 358°
2026-04-25 14:03 -26.76066 32.42958 13365 ft 389 kts 356°
2026-04-25 14:03 -26.73366 32.42870 12759 ft 386 kts 356°
2026-04-25 14:03 -26.70690 32.42787 12172 ft 383 kts 356°
2026-04-25 14:03 -26.68044 32.42715 11608 ft 379 kts 356°
2026-04-25 14:04 -26.65415 32.42652 11050 ft 376 kts 356°
2026-04-25 14:04 -26.62847 32.42600 10898 ft 362 kts 356°
2026-04-25 14:04 -26.60373 32.42554 10739 ft 349 kts 356°
2026-04-25 14:04 -26.57985 32.42512 10585 ft 337 kts 356°
2026-04-25 14:05 -26.55680 32.42471 10438 ft 326 kts 356°
2026-04-25 14:05 -26.53446 32.42432 10296 ft 315 kts 356°
2026-04-25 14:05 -26.51290 32.42394 10176 ft 305 kts 356°
2026-04-25 14:05 -26.49199 32.42357 10018 ft 297 kts 356°
2026-04-25 14:06 -26.47146 32.42320 9733 ft 293 kts 356°
2026-04-25 14:06 -26.45110 32.42282 9347 ft 293 kts 356°
2026-04-25 14:06 -26.43076 32.42244 9005 ft 293 kts 356°
2026-04-25 14:06 -26.41012 32.42206 8829 ft 298 kts 356°
2026-04-25 14:07 -26.38948 32.42170 8616 ft 292 kts 356°
2026-04-25 14:07 -26.36951 32.42137 8379 ft 281 kts 356°
2026-04-25 14:07 -26.34988 32.42103 7763 ft 280 kts 356°
2026-04-25 14:07 -26.33080 32.42071 7473 ft 266 kts 356°
2026-04-25 14:08 -26.31266 32.42040 7280 ft 258 kts 356°
2026-04-25 14:08 -26.29488 32.42008 7050 ft 251 kts 355°
2026-04-25 14:08 -26.27776 32.41978 6691 ft 240 kts 355°
2026-04-25 14:08 -26.26132 32.41948 6286 ft 239 kts 356°
2026-04-25 14:09 -26.24471 32.41918 5890 ft 238 kts 356°
2026-04-25 14:09 -26.22825 32.41889 5500 ft 236 kts 356°
2026-04-25 14:09 -26.21188 32.41860 5127 ft 234 kts 355°
2026-04-25 14:09 -26.20088 32.41840 4878 ft 233 kts 356°
2026-04-25 14:10 -26.18007 32.41809 4607 ft 217 kts 358°
2026-04-25 14:10 -26.16593 32.42219 4367 ft 208 kts 26°
2026-04-25 14:10 -26.15380 32.42994 4212 ft 196 kts 27°
2026-04-25 14:10 -26.14218 32.43710 4042 ft 187 kts 25°
2026-04-25 14:11 -26.13062 32.44414 3889 ft 191 kts 26°
2026-04-25 14:11 -26.11903 32.45123 3738 ft 188 kts 26°
2026-04-25 14:11 -26.10762 32.45824 3598 ft 186 kts 26°
2026-04-25 14:11 -26.09634 32.46515 3455 ft 184 kts 26°
2026-04-25 14:12 -26.08510 32.47203 3314 ft 184 kts 25°
2026-04-25 14:12 -26.07392 32.47889 3175 ft 184 kts 26°
2026-04-25 14:12 -26.06272 32.48575 3009 ft 183 kts 26°
2026-04-25 14:12 -26.05160 32.49256 2843 ft 183 kts 26°
2026-04-25 14:13 -26.04051 32.49938 2700 ft 179 kts 26°
2026-04-25 14:13 -26.02999 32.50581 2565 ft 168 kts 26°
2026-04-25 14:13 -26.02006 32.51186 2403 ft 159 kts 26°
2026-04-25 14:13 -26.01061 32.51765 2230 ft 150 kts 26°
2026-04-25 14:14 -26.00197 32.52296 2047 ft 137 kts 26°
2026-04-25 14:14 -25.99363 32.52805 1912 ft 135 kts 25°
2026-04-25 14:14 -25.98522 32.53317 1824 ft 140 kts 28°
2026-04-25 14:14 -25.97671 32.53878 1670 ft 146 kts 27°
2026-04-25 14:15 -25.96792 32.54385 1390 ft 138 kts 26°
2026-04-25 14:15 -25.96507 32.54559 1282 ft 138 kts 27°
2026-04-25 14:15 -25.95086 32.55418 797 ft 139 kts 26°
2026-04-25 14:15 -25.94231 32.55933 568 ft 141 kts 26°
2026-04-25 14:16 -25.93371 32.56451 392 ft 136 kts 28°
2026-04-25 14:16 -25.92589 32.56949 211 ft 127 kts 26°
2026-04-25 14:16 -25.91845 32.57398 138 ft 111 kts 29°
2026-04-25 14:16 -25.91288 32.57740 145 ft 69 kts 28°
2026-04-25 14:17 -25.91033 32.57897 145 ft 14 kts 36°
2026-04-25 14:17 -25.91030 32.57964 146 ft 10 kts 137°
2026-04-25 14:17 -25.91092 32.57992 147 ft 0 kts 163°
2026-04-25 14:17 -25.91099 32.57994 147 ft 7 kts 163°
2026-04-25 14:18 -25.91182 32.58006 145 ft 13 kts 192°
2026-04-25 14:18 -25.91240 32.57977 144 ft 0 kts 208°
2026-04-25 14:18 -25.91271 32.57958 144 ft 14 kts 208°
2026-04-25 14:18 -25.91400 32.57881 143 ft 23 kts 209°
2026-04-25 14:19 -25.91535 32.57797 139 ft 18 kts 208°
2026-04-25 14:19 -25.91609 32.57752 138 ft 7 kts 208°
2026-04-25 14:19 -25.91656 32.57724 137 ft 9 kts 208°
2026-04-25 14:19 -25.91717 32.57687 130 ft 12 kts 208°
2026-04-25 14:20 -25.91771 32.57654 128 ft 14 kts 208°
2026-04-25 14:20 -25.91829 32.57618 128 ft 15 kts 210°
2026-04-25 14:20 -25.91976 32.57529 131 ft 15 kts 208°
2026-04-25 14:20 -25.92064 32.57473 131 ft 15 kts 210°
2026-04-25 14:21 -25.92156 32.57455 133 ft 14 kts 165°
2026-04-25 14:21 -25.92253 32.57487 126 ft 15 kts 174°
2026-04-25 14:21 -25.92284 32.57489 129 ft 0 kts 176°
2026-04-25 14:24 -25.98886 32.53094 129 ft 127 kts 27°
2026-04-25 14:24 -25.93398 32.56434 398 ft 137 kts 28°
2026-04-25 14:24 -25.92613 32.56934 217 ft 127 kts 26°
2026-04-25 14:24 -25.91867 32.57385 138 ft 111 kts 27°
2026-04-25 14:25 -25.91302 32.57731 144 ft 71 kts 28°
2026-04-25 14:25 -25.91036 32.57894 145 ft 14 kts 33°
2026-04-25 14:25 -25.92420 32.57051 167 ft 127 kts 26°
2026-04-25 14:25 -25.94141 32.55987 558 ft 141 kts 26°
2026-04-25 14:26 -25.93859 32.56157 503 ft 142 kts 28°
2026-04-25 14:26 -25.93031 32.56673 311 ft 130 kts 27°
2026-04-25 14:26 -25.92257 32.57151 154 ft 124 kts 26°
2026-04-25 14:26 -25.91572 32.57567 139 ft 95 kts 28°
2026-04-25 14:27 -25.91130 32.57836 144 ft 50 kts 28°
2026-04-25 14:27 -25.91083 32.57865 144 ft 0 kts 28°
2026-04-25 14:28 -25.91017 32.57920 145 ft 9 kts 64°
2026-04-25 14:28 -25.91031 32.57964 146 ft 10 kts 137°
2026-04-25 14:29 -25.95387 32.55235 888 ft 141 kts 27°
2026-04-25 14:29 -25.97032 32.54242 1468 ft 140 kts 25°
2026-04-25 14:29 -25.96185 32.54755 1124 ft 139 kts 26°
2026-04-25 14:29 -25.95327 32.55271 871 ft 140 kts 27°
2026-04-25 14:30 -25.94474 32.55788 626 ft 140 kts 25°
2026-04-25 14:30 -25.92807 32.56815 249 ft 127 kts 27°
2026-04-25 14:30 -25.92043 32.57281 143 ft 118 kts 26°
2026-04-25 14:31 -25.91418 32.57661 141 ft 81 kts 29°
2026-04-25 14:31 -25.91064 32.57877 144 ft 25 kts 28°
2026-04-25 14:31 -25.91017 32.57947 146 ft 9 kts 107°
2026-04-25 14:31 -25.91076 32.57986 147 ft 10 kts 161°
2026-04-25 14:32 -25.91093 32.57992 147 ft 0 kts 163°
2026-04-25 14:32 -25.91158 32.58009 146 ft 11 kts 176°
2026-04-25 14:32 -25.91240 32.57977 144 ft 2 kts 208°
2026-04-25 14:32 -25.91251 32.57970 144 ft 8 kts 208°
2026-04-25 14:33 -25.91332 32.57922 144 ft 22 kts 208°